Weather History for KUKI - November, 2011

Change the Weather History Date:

Saturday, November 12, 2011

  Actual Average Record
Temperature  
Mean Temperature 54 °F 52 °F  
Max Temperature 63 °F 64 °F 80 °F (1948)
Min Temperature 44 °F 40 °F 22 °F (1929)
Degree Days  
Heating Degree Days 11 13  
Month to date heating degree days 189 137  
Since 1 July heating degree days 304 337  
Cooling Degree Days 0 0  
Month to date cooling degree days 0 0  
Year to date cooling degree days 895 835  
Growing Degree Days 4 (Base 50)    
Moisture  
Dew Point 47 °F    
Average Humidity 78    
Maximum Humidity 100    
Minimum Humidity 56    
Precipitation  
Precipitation 0.01 in 0.11 in 1.92 in (1928)
Month to date precipitation 0.81 1.46  
Year to date precipitation 26.46 27.59  
Since 1 July precipitation 4.42 4.21  
Snow  
Snow 0.00 in - - ()
Month to date snowfall 0.0  
Since 1 July snowfall 0.0  
Since 1 September snowfall 0.0  
Snow Depth 0.00 in    
Sea Level Pressure  
Sea Level Pressure 29.89 in    
Wind  
Wind Speed 1 mph (NNW)    
Max Wind Speed 6 mph    
Max Gust Speed -    
Visibility 6 miles    
Events Fog    
T = Trace of Precipitation, MM = Missing Value Source: NWS Daily Summary

Daily Weather History Graph

Daily Weather History Graph

Search for Another Location

Airport or City:

Trip Planner

Search our weather history database for the weather conditions in past years. The results will help you decide how hot, cold, wet, or windy it might be!

Date:

Astronomy

Nov. 12, 2011 Rise Set
Actual Time 6:52 AM PST 5:00 PM PST
Civil Twilight 6:24 AM PST 5:29 PM PST
Nautical Twilight 5:51 AM PST 6:01 PM PST
Astronomical Twilight 5:20 AM PST 6:33 PM PST
Moon 6:22 PM PST (11/12) 8:38 AM PST (11/12)
Length of Visible Light 11h 05m
Length of Day
10h 08m
Waning Gibbous, 96% of the Moon is Illuminated
Nov 12
Waning Gibbous
Nov 18
Last Quarter
Nov 24
New
Dec 2
First Quarter
Dec 10
Full

Hourly Weather History & Observations

Time (PST) Temp. Windchill Dew Point Humidity Pressure Visibility Wind Dir Wind Speed Gust Speed Precip Events Conditions
12:56 AM 48.9 °F - 48.0 °F 97% 29.85 in 5.0 mi NNW 4.6 mph - N/A   Overcast
1:38 AM 48.2 °F - 48.2 °F 100% 29.85 in 7.0 mi Calm Calm - N/A   Overcast
1:56 AM 48.9 °F - 48.0 °F 97% 29.86 in 8.0 mi Calm Calm - N/A   Overcast
2:41 AM 50.0 °F - 48.2 °F 94% 29.87 in 8.0 mi Calm Calm - N/A   Overcast
2:56 AM 48.9 °F - 48.9 °F 100% 29.86 in 7.0 mi Calm Calm - N/A   Overcast
3:56 AM 48.9 °F - 48.0 °F 97% 29.85 in 5.0 mi Calm Calm - 0.01 in   Overcast
5:56 AM 48.0 °F - 46.9 °F 96% 29.86 in 7.0 mi Calm Calm - N/A   Mostly Cloudy
6:14 AM 46.4 °F - 46.4 °F 100% 29.87 in 2.5 mi Calm Calm - N/A   Mostly Cloudy
6:25 AM 48.2 °F - 46.4 °F 93% 29.87 in 2.5 mi Calm Calm - N/A   Overcast
6:30 AM 48.2 °F - 48.2 °F 100% 29.87 in 3.0 mi Calm Calm - N/A   Overcast
6:56 AM 48.0 °F - 46.9 °F 96% 29.88 in 2.0 mi NNW 3.5 mph - N/A   Overcast
6:59 AM 46.4 °F 45.2 °F 46.4 °F 100% 29.88 in 0.8 mi NNW 3.5 mph - N/A   Overcast
7:04 AM 46.4 °F - 46.4 °F 100% 29.89 in 0.2 mi Calm Calm - N/A Fog Fog
7:21 AM 46.4 °F - 46.4 °F 100% 29.89 in 1.0 mi Calm Calm - N/A   Overcast
7:26 AM 46.4 °F - 46.4 °F 100% 29.88 in 3.0 mi Calm Calm - N/A   Mostly Cloudy
7:34 AM 46.4 °F - 46.4 °F 100% 29.89 in 6.0 mi Calm Calm - N/A   Mostly Cloudy
7:48 AM 46.4 °F - 46.4 °F 100% 29.89 in 5.0 mi Calm Calm - N/A   Partly Cloudy
7:54 AM 48.2 °F - 46.4 °F 93% 29.89 in 1.5 mi Calm Calm - N/A   Scattered Clouds
7:56 AM 46.9 °F - 46.9 °F 100% 29.89 in 0.8 mi Calm Calm - N/A   Mist
7:59 AM 46.4 °F - 46.4 °F 100% 29.90 in 0.2 mi Calm Calm - N/A Fog Fog
8:33 AM 48.2 °F - 48.2 °F 100% 29.92 in 1.0 mi Calm Calm - N/A   Overcast
8:56 AM 48.9 °F - 48.0 °F 97% 29.91 in 10.0 mi Calm Calm - N/A   Mostly Cloudy
9:39 AM 53.6 °F - 48.2 °F 82% 29.92 in 10.0 mi East 3.5 mph - N/A   Scattered Clouds
9:56 AM 53.1 °F - 48.9 °F 86% 29.92 in 10.0 mi Calm Calm - N/A   Clear
10:56 AM 57.9 °F - 46.9 °F 67% 29.91 in 10.0 mi Calm Calm - N/A   Clear
11:56 AM 61.0 °F - 46.0 °F 58% 29.90 in 10.0 mi Variable 3.5 mph - N/A   Clear
12:56 PM 62.1 °F - 46.0 °F 56% 29.87 in 10.0 mi Calm Calm - N/A   Clear
1:56 PM 63.0 °F - 46.9 °F 56% 29.86 in 10.0 mi SSE 3.5 mph - N/A   Clear
2:56 PM 60.1 °F - 48.0 °F 64% 29.87 in 10.0 mi West 5.8 mph - N/A   Clear
3:56 PM 61.0 °F - 46.9 °F 60% 29.88 in 10.0 mi Calm Calm - N/A   Clear
4:56 PM 55.9 °F - 46.9 °F 72% 29.90 in 10.0 mi Calm Calm - N/A   Clear
5:56 PM 52.0 °F - 46.9 °F 83% 29.92 in 10.0 mi Calm Calm - N/A   Clear
6:56 PM 50.0 °F - 46.4 °F 87% 29.94 in 10.0 mi Calm Calm - N/A   Clear
7:56 PM 48.2 °F - 44.6 °F 87% 29.94 in 10.0 mi Calm Calm - N/A   Clear
8:56 PM 48.0 °F - 45.0 °F 89% 29.95 in 10.0 mi Calm Calm - N/A   Clear
9:56 PM 46.9 °F - 45.0 °F 93% 29.96 in 10.0 mi Calm Calm - N/A   Clear
10:56 PM 45.0 °F - 43.0 °F 93% 29.96 in 10.0 mi Calm Calm - N/A   Clear
11:56 PM 45.0 °F - 43.0 °F 93% 29.96 in 7.0 mi Calm Calm - N/A   Clear